Weather History for KFSE - August, 2013

Change the Weather History Date:

Thursday, August 29, 2013

  Actual Average Record
Temperature  
Mean Temperature 76 °F -  
Max Temperature 89 °F 77 °F 95 °F (2012)
Min Temperature 64 °F 52 °F 38 °F (1988)
Cooling Degree Days 12    
Growing Degree Days 26 (Base 50)    
Moisture  
Dew Point 66 °F    
Average Humidity 75    
Maximum Humidity 100    
Minimum Humidity 49    
Precipitation  
Precipitation 0.48 in - - ()
Sea Level Pressure  
Sea Level Pressure 29.91 in    
Wind  
Wind Speed 7 mph (SSW)    
Max Wind Speed 38 mph    
Max Gust Speed 53 mph    
Visibility 10 miles    
Events Rain , Thunderstorm    
Averages and records for this station are not official NWS values.
T = Trace of Precipitation, MM = Missing Value Source: NWS Daily Summary

Daily Weather History Graph

Daily Weather History Graph

Search for Another Location

Airport or City:

Trip Planner

Search our weather history database for the weather conditions in past years. The results will help you decide how hot, cold, wet, or windy it might be!

Date:

Astronomy

Aug. 29, 2013 Rise Set
Actual Time 6:38 AM CDT 8:08 PM CDT
Civil Twilight 6:05 AM CDT 8:40 PM CDT
Nautical Twilight 5:26 AM CDT 9:19 PM CDT
Astronomical Twilight 4:44 AM CDT 10:01 PM CDT
Moon 12:17 AM CDT (8/29) 3:51 PM CDT (8/29)
Length of Visible Light 14h 35m
Length of Day
13h 30m
Last Quarter, 38% of the Moon is Illuminated
Aug 29
Last Quarter
Sep 5
New
Sep 12
First Quarter
Sep 19
Full
Sep 26
Last Quarter

Hourly Weather History & Observations

Time (CDT) Temp. Heat Index Dew Point Humidity Pressure Visibility Wind Dir Wind Speed Gust Speed Precip Events Conditions
12:15 AM 69.8 °F - 62.6 °F 78% 30.00 in 10.0 mi Calm Calm - N/A   Clear
12:35 AM 69.8 °F - 60.8 °F 73% 30.00 in 10.0 mi Calm Calm - N/A   Clear
12:55 AM 69.8 °F - 62.6 °F 78% 30.00 in 10.0 mi SE 4.6 mph - N/A   Clear
1:15 AM 69.8 °F - 62.6 °F 78% 30.01 in 10.0 mi SE 4.6 mph - N/A   Clear
1:35 AM 69.8 °F - 62.6 °F 78% 30.01 in 10.0 mi SE 5.8 mph - N/A   Clear
1:56 AM 69.8 °F - 64.4 °F 83% 30.00 in 10.0 mi SE 5.8 mph - N/A   Clear
2:15 AM 69.8 °F - 64.4 °F 83% 29.98 in 10.0 mi SE 6.9 mph - N/A   Clear
2:35 AM 71.6 °F - 64.4 °F 78% 29.98 in 10.0 mi SE 5.8 mph - N/A   Clear
2:56 AM 71.6 °F - 66.2 °F 83% 29.98 in 10.0 mi SE 6.9 mph - N/A   Clear
3:15 AM 71.6 °F - 66.2 °F 83% 29.98 in 10.0 mi SE 9.2 mph - N/A   Clear
3:35 AM 71.6 °F - 64.4 °F 78% 29.97 in 10.0 mi SE 8.1 mph - N/A   Clear
3:55 AM 71.6 °F - 64.4 °F 78% 29.96 in 10.0 mi SE 6.9 mph - N/A   Clear
4:15 AM 71.6 °F - 64.4 °F 78% 29.95 in 10.0 mi SE 8.1 mph - N/A   Scattered Clouds
4:35 AM 71.6 °F - 64.4 °F 78% 29.94 in 10.0 mi SE 9.2 mph - N/A   Scattered Clouds
4:55 AM 71.6 °F - 64.4 °F 78% 29.94 in 10.0 mi SSE 5.8 mph - N/A   Clear
5:15 AM 71.6 °F - 64.4 °F 78% 29.93 in 10.0 mi SE 6.9 mph - N/A   Clear
5:35 AM 71.6 °F - 64.4 °F 78% 29.94 in 10.0 mi SSE 8.1 mph - N/A   Scattered Clouds
5:55 AM 71.6 °F - 64.4 °F 78% 29.92 in 10.0 mi SE 6.9 mph - N/A   Scattered Clouds
6:15 AM 71.6 °F - 64.4 °F 78% 29.92 in 10.0 mi SE 6.9 mph - N/A   Clear
6:35 AM 71.6 °F - 64.4 °F 78% 29.91 in 10.0 mi SE 6.9 mph - N/A   Clear
6:55 AM 73.4 °F - 66.2 °F 78% 29.92 in 10.0 mi SSE 6.9 mph - N/A   Scattered Clouds
7:15 AM 71.6 °F - 64.4 °F 78% 29.90 in 7.0 mi SE 6.9 mph - N/A Rain , Thunderstorm Light Thunderstorms and Rain
7:35 AM 69.8 °F - 62.6 °F 78% 29.90 in 10.0 mi Calm Calm - 0.01 in Rain Light Rain
7:55 AM 71.6 °F - 66.2 °F 83% 29.91 in 10.0 mi SSE 8.1 mph - 0.01 in Rain , Thunderstorm Light Thunderstorms and Rain
8:15 AM 71.6 °F - 66.2 °F 83% 29.94 in 10.0 mi Calm Calm - 0.01 in Rain , Thunderstorm Light Thunderstorms and Rain
8:34 AM 66.2 °F - 62.6 °F 88% 30.01 in 3.0 mi West 38.0 mph 52.9 mph 0.13 in Rain , Thunderstorm Heavy Thunderstorms and Rain
8:55 AM 64.4 °F - 62.6 °F 94% 29.98 in 7.0 mi WSW 16.1 mph 25.3 mph 0.40 in Rain , Thunderstorm Heavy Thunderstorms and Rain
9:15 AM 64.4 °F - 62.6 °F 94% 29.95 in 10.0 mi SW 17.3 mph 23.0 mph 0.07 in Rain , Thunderstorm Thunderstorms and Rain
9:35 AM 66.2 °F - 64.4 °F 94% 29.91 in 10.0 mi South 5.8 mph 19.6 mph 0.01 in Rain , Thunderstorm Light Thunderstorms and Rain
9:55 AM 66.2 °F - 66.2 °F 100% 29.86 in 10.0 mi South 11.5 mph - 0.02 in Rain , Thunderstorm Light Thunderstorms and Rain
10:15 AM 69.8 °F - 66.2 °F 88% 29.83 in 10.0 mi South 12.7 mph 20.7 mph N/A   Clear
10:35 AM 69.8 °F - 66.2 °F 88% 29.82 in 10.0 mi South 13.8 mph 19.6 mph N/A   Clear
10:55 AM 71.6 °F - 66.2 °F 83% 29.81 in 10.0 mi South 11.5 mph - N/A Thunderstorm Clear
11:15 AM 75.2 °F - 69.8 °F 83% 29.81 in 10.0 mi South 16.1 mph 21.9 mph N/A   Clear
11:35 AM 78.8 °F - 69.8 °F 74% 29.83 in 10.0 mi South 16.1 mph 23.0 mph N/A   Clear
11:55 AM 78.8 °F - 71.6 °F 78% 29.85 in 10.0 mi SSW 11.5 mph - N/A   Scattered Clouds
12:15 PM 80.6 °F 84.6 °F 71.6 °F 74% 29.86 in 10.0 mi SSW 12.7 mph - N/A   Scattered Clouds
12:35 PM 82.4 °F 87.2 °F 71.6 °F 70% 29.87 in 10.0 mi SSW 11.5 mph - N/A   Clear
12:55 PM 82.4 °F 87.2 °F 71.6 °F 70% 29.87 in 10.0 mi SSW 12.7 mph - N/A   Clear
1:15 PM 84.2 °F 90.9 °F 73.4 °F 70% 29.86 in 10.0 mi SSW 13.8 mph 19.6 mph N/A   Clear
1:35 PM 84.2 °F 90.9 °F 73.4 °F 70% 29.86 in 10.0 mi SSW 10.4 mph - N/A   Clear
1:55 PM 87.8 °F 93.8 °F 71.6 °F 58% 29.86 in 10.0 mi WSW 11.5 mph 19.6 mph N/A   Scattered Clouds
2:15 PM 87.8 °F 93.8 °F 71.6 °F 58% 29.86 in 10.0 mi SW 11.5 mph 16.1 mph N/A   Mostly Cloudy
2:35 PM 84.2 °F 89.6 °F 71.6 °F 66% 29.86 in 10.0 mi WNW 11.5 mph 19.6 mph N/A   Mostly Cloudy
2:55 PM 86.0 °F 91.8 °F 71.6 °F 62% 29.86 in 10.0 mi West 15.0 mph 18.4 mph N/A   Scattered Clouds
3:15 PM 86.0 °F 90.4 °F 69.8 °F 58% 29.85 in 10.0 mi West 11.5 mph 17.3 mph N/A   Scattered Clouds
3:35 PM 87.8 °F 91.4 °F 68.0 °F 52% 29.85 in 10.0 mi WNW 10.4 mph 17.3 mph N/A   Scattered Clouds
3:54 PM 87.8 °F 92.6 °F 69.8 °F 55% 29.85 in 10.0 mi WNW 11.5 mph 16.1 mph N/A   Clear
4:15 PM 87.8 °F 92.6 °F 69.8 °F 55% 29.85 in 10.0 mi West 9.2 mph - N/A   Clear
4:35 PM 89.6 °F 93.4 °F 68.0 °F 49% 29.84 in 10.0 mi West 10.4 mph - N/A   Clear
4:55 PM 87.8 °F 91.4 °F 68.0 °F 52% 29.85 in 10.0 mi West 10.4 mph - N/A   Clear
5:15 PM 87.8 °F 90.4 °F 66.2 °F 49% 29.86 in 10.0 mi WNW 11.5 mph - N/A   Clear
5:35 PM 86.0 °F 88.2 °F 66.2 °F 51% 29.86 in 10.0 mi NW 13.8 mph 18.4 mph N/A   Clear
5:55 PM 84.2 °F 86.6 °F 66.2 °F 55% 29.86 in 10.0 mi NW 13.8 mph 20.7 mph N/A   Clear
6:15 PM 84.2 °F 86.6 °F 66.2 °F 55% 29.87 in 10.0 mi NW 11.5 mph 18.4 mph N/A   Clear
6:35 PM 84.2 °F 86.6 °F 66.2 °F 55% 29.87 in 10.0 mi NW 9.2 mph - N/A   Clear
6:55 PM 82.4 °F 84.6 °F 66.2 °F 58% 29.87 in 10.0 mi NW 9.2 mph - N/A   Clear
7:15 PM 80.6 °F 82.7 °F 66.2 °F 61% 29.87 in 10.0 mi NW 8.1 mph - N/A   Scattered Clouds
7:35 PM 80.6 °F 82.7 °F 66.2 °F 61% 29.88 in 10.0 mi NW 6.9 mph - N/A   Scattered Clouds
7:55 PM 77.0 °F - 66.2 °F 69% 29.88 in 10.0 mi NW 9.2 mph - N/A   Clear
8:15 PM 75.2 °F - 66.2 °F 73% 29.89 in 10.0 mi NW 6.9 mph - N/A   Clear
8:35 PM 73.4 °F - 66.2 °F 78% 29.90 in 10.0 mi NNW 9.2 mph - N/A   Clear
8:55 PM 71.6 °F - 66.2 °F 83% 29.90 in 10.0 mi North 6.9 mph - N/A   Clear
9:15 PM 69.8 °F - 66.2 °F 88% 29.92 in 10.0 mi Calm Calm - N/A   Clear
9:35 PM 69.8 °F - 66.2 °F 88% 29.93 in 10.0 mi North 8.1 mph - N/A   Clear
9:55 PM 69.8 °F - 66.2 °F 88% 29.93 in 10.0 mi North 8.1 mph - N/A   Clear
10:15 PM 69.8 °F - 64.4 °F 83% 29.93 in 10.0 mi North 9.2 mph - N/A   Clear
10:35 PM 68.0 °F - 64.4 °F 88% 29.93 in 10.0 mi North 8.1 mph - N/A   Clear
10:55 PM 66.2 °F - 64.4 °F 94% 29.94 in 10.0 mi North 8.1 mph - N/A   Clear
11:15 PM 66.2 °F - 64.4 °F 94% 29.94 in 10.0 mi North 4.6 mph - N/A   Clear
11:35 PM 66.2 °F - 64.4 °F 94% 29.94 in 10.0 mi Calm Calm - N/A   Clear
11:55 PM 64.4 °F - 62.6 °F 94% 29.95 in 10.0 mi Calm Calm - N/A   Clear